Location: Banska Bystrica
(0.0000°N, 19.1500°E)
Time: 10:32:21
(UTC+02:00)

Intelsat 5-1 Rocket - Pass Details

Date: 19 February 2019
Orbit: 313 x 7638 km, 24.0° (Epoch: 21 October)

Event Time Altitude Azimuth Distance (km) Brightness Sun altitude
Rises 19:27:38 0° 246° (WSW) 9,276 9.4 -22.2°
Reaches altitude 10° 19:36:23 10° 247° (WSW) 6,858 8.4 -24.3°
Maximum altitude 19:53:40 76° 331° (NNW) 1,431 3.7 -28.5°
Enters shadow 19:55:10 59° 35° (NE) 1,378 3.4 -28.9°
